Grass Valley, CA

8:21 AM PDT on March 28, 2017 (GMT -0700)
Grass Valley

Weather History for KGOO - January, 2014

Change the Weather History Date:

Tuesday, January 14, 2014

  Actual Average (KBLU) Record (KBLU)
Temperature  
Mean Temperature 63 °F -  
Max Temperature 73 °F 47 °F 68 °F (2009)
Min Temperature 53 °F 35 °F 12 °F (1950)
Degree Days  
Heating Degree Days 2    
Growing Degree Days 13 (Base 50)    
Moisture  
Dew Point 8 °F    
Average Humidity 12    
Maximum Humidity 23    
Minimum Humidity 5    
Precipitation  
Precipitation 0.00 in - - ()
Sea Level Pressure  
Sea Level Pressure 30.46 in    
Wind  
Wind Speed 4 mph (ENE)    
Max Wind Speed 12 mph    
Max Gust Speed -    
Visibility 10 miles    
Events      
Averages and records for this station are not official NWS values.
T = Trace of Precipitation, MM = Missing Value Source: NWS Daily Summary

Daily Weather History Graph

Daily Weather History Graph

Search for Another Location

Airport or City:

Trip Planner

Search our weather history database for the weather conditions in past years. The results will help you decide how hot, cold, wet, or windy it might be!

Date:

Astronomy

Jan. 14, 2014 Rise Set
Actual Time 7:22 AM PST 5:04 PM PST
Civil Twilight 6:52 AM PST 5:33 PM PST
Nautical Twilight 6:19 AM PST 6:06 PM PST
Astronomical Twilight 5:47 AM PST 6:38 PM PST
Moon 4:13 PM PST (1/14) 6:00 AM PST (1/14)
Length of Visible Light 10h 40m
Length of Day
9h 42m
Waxing Gibbous, 98% of the Moon is Illuminated
Jan 14
Waxing Gibbous
Jan 15
Full
Jan 23
Last Quarter
Jan 30
New
Feb 6
First Quarter

Hourly Weather History & Observations

Time (PST) Temp. Dew Point Humidity Pressure Visibility Wind Dir Wind Speed Gust Speed Precip Events Conditions
12:15 AM 57.2 °F -0.4 °F 10% 30.44 in 10.0 mi Calm Calm - N/A   Clear
12:35 AM 55.4 °F -0.4 °F 10% 30.44 in 10.0 mi East 4.6 mph - N/A   Clear
12:55 AM 60.8 °F -0.4 °F 8% 30.44 in 10.0 mi East 9.2 mph - N/A   Clear
1:15 AM 60.8 °F 1.4 °F 9% 30.45 in 10.0 mi East 9.2 mph - N/A   Clear
1:35 AM 59.0 °F 1.4 °F 10% 30.45 in 10.0 mi East 11.5 mph - N/A   Clear
1:55 AM 59.0 °F -0.4 °F 9% 30.45 in 10.0 mi East 5.8 mph - N/A   Clear
2:15 AM 59.0 °F 1.4 °F 10% 30.46 in 10.0 mi East 8.1 mph - N/A   Clear
2:35 AM 60.8 °F 3.2 °F 10% 30.46 in 10.0 mi East 6.9 mph - N/A   Clear
2:55 AM 59.0 °F 5.0 °F 12% 30.46 in 10.0 mi East 6.9 mph - N/A   Clear
3:15 AM 59.0 °F 6.8 °F 13% 30.46 in 10.0 mi East 6.9 mph - N/A   Clear
3:35 AM 59.0 °F 8.6 °F 14% 30.46 in 10.0 mi East 8.1 mph - N/A   Clear
3:55 AM 59.0 °F 8.6 °F 14% 30.46 in 10.0 mi East 8.1 mph - N/A   Clear
4:15 AM 59.0 °F 10.4 °F 15% 30.46 in 10.0 mi NE 4.6 mph - N/A   Clear
4:35 AM 55.4 °F 10.4 °F 17% 30.46 in 10.0 mi Calm Calm - N/A   Clear
4:55 AM 53.6 °F 10.4 °F 18% 30.46 in 10.0 mi Calm Calm - N/A   Clear
5:15 AM 55.4 °F 8.6 °F 15% 30.46 in 10.0 mi Calm Calm - N/A   Clear
5:35 AM 55.4 °F 5.0 °F 13% 30.47 in 10.0 mi Calm Calm - N/A   Clear
5:55 AM 57.2 °F 6.8 °F 13% 30.47 in 10.0 mi Calm Calm - N/A   Clear
6:15 AM 57.2 °F 5.0 °F 12% 30.48 in 10.0 mi Calm Calm - N/A   Clear
6:35 AM 55.4 °F 6.8 °F 14% 30.48 in 10.0 mi Calm Calm - N/A   Clear
6:55 AM 55.4 °F 6.8 °F 14% 30.48 in 10.0 mi Calm Calm - N/A   Clear
7:15 AM 57.2 °F 6.8 °F 13% 30.49 in 10.0 mi Calm Calm - N/A   Clear
7:35 AM 57.2 °F 6.8 °F 13% 30.49 in 10.0 mi Calm Calm - N/A   Clear
7:55 AM 55.4 °F 10.4 °F 17% 30.49 in 10.0 mi Calm Calm - N/A   Clear
8:15 AM 55.4 °F 14.0 °F 20% 30.50 in 10.0 mi Calm Calm - N/A   Clear
8:35 AM 59.0 °F 12.2 °F 16% 30.51 in 10.0 mi Calm Calm - N/A   Clear
8:55 AM 60.8 °F 12.2 °F 15% 30.51 in 10.0 mi Calm Calm - N/A   Clear
9:15 AM 64.4 °F 10.4 °F 12% 30.52 in 10.0 mi Calm Calm - N/A   Clear
9:35 AM 64.4 °F 14.0 °F 14% 30.52 in 10.0 mi Calm Calm - N/A   Clear
9:55 AM 66.2 °F 10.4 °F 11% 30.52 in 10.0 mi Calm Calm - N/A   Clear
10:15 AM 68.0 °F 10.4 °F 11% 30.52 in 10.0 mi Calm Calm - N/A   Clear
10:35 AM 66.2 °F 19.4 °F 17% 30.52 in 10.0 mi Calm Calm - N/A   Clear
10:55 AM 68.0 °F 19.4 °F 16% 30.51 in 10.0 mi Calm Calm - N/A   Clear
11:15 AM 68.0 °F 15.8 °F 13% 30.50 in 10.0 mi Calm Calm - N/A   Clear
11:35 AM 68.0 °F 12.2 °F 12% 30.50 in 10.0 mi WNW 5.8 mph - N/A   Clear
11:55 AM 68.0 °F 8.6 °F 10% 30.49 in 10.0 mi WNW 6.9 mph - N/A   Clear
12:15 PM 69.8 °F 14.0 °F 12% 30.48 in 10.0 mi NNW 5.8 mph - N/A   Clear
12:35 PM 69.8 °F 17.6 °F 14% 30.47 in 10.0 mi WNW 3.5 mph - N/A   Clear
12:55 PM 69.8 °F 14.0 °F 12% 30.46 in 10.0 mi NW 6.9 mph - N/A   Clear
1:15 PM 69.8 °F 14.0 °F 12% 30.45 in 10.0 mi NW 8.1 mph - N/A   Clear
1:35 PM 71.6 °F 12.2 °F 10% 30.45 in 10.0 mi NNW 5.8 mph - N/A   Clear
1:55 PM 71.6 °F 14.0 °F 11% 30.44 in 10.0 mi NNW 6.9 mph - N/A   Clear
2:15 PM 71.6 °F 17.6 °F 13% 30.44 in 10.0 mi NW 4.6 mph - N/A   Clear
2:35 PM 71.6 °F 19.4 °F 14% 30.44 in 10.0 mi NNW 5.8 mph - N/A   Clear
2:55 PM 71.6 °F 21.2 °F 15% 30.44 in 10.0 mi Calm Calm - N/A   Clear
3:15 PM 73.4 °F 19.4 °F 13% 30.44 in 10.0 mi NNW 6.9 mph - N/A   Clear
3:35 PM 73.4 °F 21.2 °F 14% 30.44 in 10.0 mi Calm Calm - N/A   Clear
3:55 PM 73.4 °F 21.2 °F 14% 30.44 in 10.0 mi Calm Calm - N/A   Clear
4:15 PM 71.6 °F 23.0 °F 16% 30.44 in 10.0 mi Calm Calm - N/A   Clear
4:35 PM 69.8 °F 24.8 °F 18% 30.44 in 10.0 mi Calm Calm - N/A   Clear
4:55 PM 66.2 °F 26.6 °F 23% 30.44 in 10.0 mi Calm Calm - N/A   Clear
5:15 PM 68.0 °F 17.6 °F 15% 30.44 in 10.0 mi Calm Calm - N/A   Clear
5:35 PM 66.2 °F 14.0 °F 13% 30.44 in 10.0 mi Calm Calm - N/A   Clear
5:55 PM 68.0 °F 6.8 °F 9% 30.44 in 10.0 mi East 6.9 mph - N/A   Clear
6:15 PM 66.2 °F 5.0 °F 9% 30.45 in 10.0 mi East 5.8 mph - N/A   Clear
6:35 PM 66.2 °F 1.4 °F 8% 30.45 in 10.0 mi East 4.6 mph - N/A   Clear
6:55 PM 66.2 °F -0.4 °F 7% 30.45 in 10.0 mi Calm Calm - N/A   Clear
7:15 PM 66.2 °F -0.4 °F 7% 30.45 in 10.0 mi East 4.6 mph - N/A   Clear
7:35 PM 66.2 °F -0.4 °F 7% 30.45 in 10.0 mi Calm Calm - N/A   Clear
7:55 PM 64.4 °F -2.2 °F 7% 30.44 in 10.0 mi East 5.8 mph - N/A   Clear
8:15 PM 62.6 °F -0.4 °F 8% 30.45 in 10.0 mi ENE 8.1 mph - N/A   Clear
8:35 PM 62.6 °F -2.2 °F 7% 30.44 in 10.0 mi ENE 3.5 mph - N/A   Clear
8:55 PM 59.0 °F 5.0 °F 12% 30.44 in 10.0 mi NE 3.5 mph - N/A   Clear
9:15 PM 62.6 °F -2.2 °F 7% 30.44 in 10.0 mi ENE 8.1 mph - N/A   Clear
9:35 PM 64.4 °F -5.8 °F 6% 30.43 in 10.0 mi East 9.2 mph - N/A   Clear
9:55 PM 64.4 °F -7.6 °F 5% 30.44 in 10.0 mi East 6.9 mph - N/A   Clear
10:15 PM 64.4 °F -7.6 °F 5% 30.44 in 10.0 mi ESE 6.9 mph - N/A   Clear
10:35 PM 64.4 °F -7.6 °F 5% 30.44 in 10.0 mi ESE 6.9 mph - N/A   Clear
10:55 PM 62.6 °F -4.0 °F 7% 30.43 in 10.0 mi SE 4.6 mph - N/A   Clear
11:15 PM 62.6 °F -9.4 °F 5% 30.43 in 10.0 mi ESE 6.9 mph - N/A   Clear
11:35 PM 62.6 °F -7.6 °F 6% 30.43 in 10.0 mi East 9.2 mph - N/A   Clear
11:55 PM 62.6 °F -9.4 °F 5% 30.42 in 10.0 mi ESE 6.9 mph - N/A   Clear